Vorticity
13 12 9 10 11 13 22 24 15 7 7 7 7 6 2 1 2 4 8 10 11 10 9 8 7 6 6 5 5 4 4 5 4 5 5 5 5 6 6 6 5 5 5 5 5 5 6 6 5 5 4 4 4 3 5 6 8 10 11 11 11 11 11 13 15 15 16 14 11 9 8 7 8 10 11 11 9 6 6 9 8 5 2 2 3 6 9 10
10 9 4 6 8 11 23 28 18 10 9 7 7 8 5 4 1 2 3 4 7 8 10 10 10 9 9 8 7 6 5 6 6 6 6 6 6 6 6 6 6 5 5 5 5 5 5 6 5 6 5 4 4 3 3 4 5 5 8 10 11 11 11 12 12 12 15 16 16 13 11 8 7 9 10 11 12 9 6 6 9 11 8 4 2 -1 -1 10
16 15 9 8 6 6 16 27 22 11 11 9 8 8 6 6 3 2 2 3 3 3 5 7 9 10 10 11 10 10 9 8 8 8 7 6 6 6 6 6 6 6 6 6 5 5 5 5 5 5 6 5 5 5 4 3 3 3 3 5 7 8 8 11 11 11 12 13 15 15 14 12 7 7 7 7 10 11 7 5 6 8 10 8 6 3 -4 -6
16 17 15 13 11 7 7 19 24 14 12 12 9 9 8 7 6 4 3 3 3 2 2 2 4 5 6 7 8 10 10 10 10 9 8 7 7 6 6 6 5 5 5 5 5 5 5 5 5 5 5 5 5 5 5 5 4 3 2 2 4 5 5 8 9 9 10 10 12 12 15 16 12 7 5 4 8 11 10 7 4 4 6 8 8 8 6 -3
15 14 14 15 15 14 7 11 20 16 11 13 12 9 9 9 7 7 5 5 4 4 3 2 2 1 2 3 4 6 6 8 8 8 8 8 8 7 6 5 5 4 4 3 4 5 4 4 4 5 5 4 4 5 5 6 5 5 3 2 2 3 3 4 6 7 9 10 11 12 14 17 17 14 10 6 4 7 10 9 7 6 4 5 7 7 8 5
14 13 13 14 14 17 15 10 14 17 11 11 15 12 9 10 9 8 8 7 6 5 5 5 4 2 2 1 1 2 2 3 5 5 5 6 6 6 5 5 5 4 3 3 4 4 4 4 3 4 5 5 4 4 5 5 5 5 4 4 3 3 3 3 3 4 6 9 10 12 12 13 17 18 15 12 8 5 7 9 9 10 9 5 5 5 6 7
10 9 9 12 13 14 20 18 13 16 12 8 12 15 12 10 10 9 9 9 8 8 7 7 7 7 5 4 3 2 2 2 2 3 3 3 3 4 4 4 4 4 4 4 4 4 4 5 4 4 3 4 5 4 3 4 4 4 4 6 4 4 4 3 4 4 4 6 7 9 10 10 12 15 17 16 14 10 7 6 6 8 11 10 7 5 4 4
6 5 5 6 10 9 14 22 19 15 14 9 6 11 14 12 10 9 9 9 9 8 8 8 8 9 9 8 7 6 5 4 4 3 2 2 3 3 3 3 3 4 5 5 5 5 5 5 5 5 4 4 4 4 4 3 3 2 3 5 4 4 5 4 3 3 3 3 4 5 7 9 10 11 14 16 17 16 12 8 6 4 6 9 11 10 7 5
7 9 9 8 11 9 8 14 20 19 16 12 7 5 7 11 12 11 11 10 10 9 7 7 7 7 8 9 9 9 9 8 8 7 6 5 4 4 4 4 4 3 4 5 5 6 6 7 6 5 5 5 5 5 5 4 4 3 3 4 3 3 5 5 4 3 4 2 3 3 3 6 8 10 10 12 14 16 17 15 11 7 4 4 6 10 11 9
11 13 14 13 15 17 14 10 13 18 19 17 13 9 5 5 8 9 10 10 11 10 9 9 8 8 8 8 8 9 9 10 10 10 10 9 8 8 7 7 7 6 6 5 5 5 5 6 6 6 6 6 6 6 6 5 4 5 5 4 3 3 3 4 3 4 4 4 4 3 3 3 4 5 6 7 9 10 13 16 17 14 10 6 2 1 4 5
14 13 12 11 12 14 18 16 13 12 16 19 17 15 12 8 7 6 7 8 8 9 9 10 9 9 9 9 9 7 8 9 9 9 9 10 9 9 8 8 8 8 8 7 7 6 6 6 6 6 7 7 7 6 6 6 5 5 5 5 4 3 4 4 3 3 4 4 5 4 3 3 1 2 3 5 7 8 9 10 13 16 16 15 12 6 2 -0
13 11 9 9 10 11 14 18 18 14 12 15 16 17 17 16 14 11 10 9 9 9 9 10 10 10 9 10 10 8 8 9 9 9 9 9 9 9 8 8 7 7 7 8 8 8 7 7 7 7 7 7 7 7 7 7 6 6 6 5 5 4 4 5 3 3 5 5 5 6 4 3 2 2 3 3 3 5 8 8 9 10 12 15 17 17 15 11
13 10 7 8 10 12 12 14 17 18 15 11 12 14 15 15 15 15 15 13 13 13 13 13 12 11 10 12 13 11 11 10 10 11 11 11 11 10 11 10 10 9 9 8 8 8 9 8 8 8 8 8 7 8 8 8 7 7 7 6 6 6 5 5 5 4 4 6 5 5 5 4 4 4 3 3 3 3 4 6 8 9 10 11 12 14 16 17
12 11 8 6 9 12 12 12 14 17 18 15 11 10 12 12 12 13 13 13 13 13 13 13 12 12 10 11 12 12 12 11 12 12 13 12 11 11 12 12 12 11 11 10 9 9 9 9 8 8 8 8 8 8 7 8 8 7 7 7 7 7 6 6 6 5 4 5 5 5 5 4 4 5 5 5 4 4 4 4 5 6 7 9 11 11 12 13
10 12 11 8 8 11 11 10 11 13 17 19 16 12 10 10 10 10 10 10 10 10 10 11 11 11 9 8 9 9 10 10 10 11 11 11 11 10 10 9 10 11 10 10 10 9 9 9 9 8 9 8 8 9 9 9 8 8 8 8 8 7 7 6 6 5 4 5 4 4 6 5 3 4 5 6 6 5 5 5 5 5 6 6 8 9 11 12
6 9 11 11 9 10 11 9 8 10 12 16 19 18 15 11 9 8 7 7 7 7 8 8 9 9 7 7 6 6 7 7 8 8 7 8 9 9 9 8 8 9 9 9 9 9 9 9 9 9 9 10 10 10 10 10 9 10 10 10 10 9 8 7 7 6 5 6 5 5 6 6 5 5 5 5 6 7 7 6 5 4 4 5 5 6 8 9
5 6 8 10 10 9 10 10 8 7 7 9 12 16 17 17 15 13 11 9 8 7 7 6 7 7 5 6 6 5 5 5 5 7 7 7 7 7 7 7 7 7 7 8 8 8 8 8 9 8 8 8 9 9 9 9 10 11 11 11 11 10 10 9 9 8 8 7 6 6 6 6 6 5 6 6 5 6 7 7 6 5 5 4 4 4 5 6
8 7 6 7 10 9 8 8 8 8 7 7 7 8 10 12 14 15 14 14 14 13 12 10 9 9 7 7 7 5 6 6 5 5 6 6 6 6 6 6 6 6 6 7 7 7 7 7 7 7 8 8 8 9 9 8 8 8 8 8 8 7 8 8 8 8 9 9 8 8 8 8 7 6 5 5 5 4 5 7 7 7 7 6 6 5 5 5
9 10 9 6 8 10 9 6 5 6 6 6 7 7 7 7 8 9 9 11 12 14 14 14 14 13 11 10 9 8 8 8 7 6 5 6 5 6 6 6 6 6 7 7 7 7 7 7 7 8 8 8 8 7 6 5 5 5 5 5 5 6 6 7 7 8 9 9 9 10 10 10 9 9 7 6 6 5 5 5 6 7 7 7 7 6 6 5
9 11 12 10 7 8 10 9 6 3 2 2 2 4 5 6 5 4 5 5 5 6 7 8 10 10 11 11 10 10 10 8 8 8 7 6 6 5 5 5 6 6 6 6 6 7 6 7 7 8 7 6 6 5 5 6 6 6 6 6 6 7 7 7 7 7 8 8 8 8 9 10 10 10 10 9 8 6 5 5 5 6 6 7 7 7 7 6
12 11 12 12 10 8 8 10 10 8 5 4 4 5 7 6 6 6 6 6 5 5 5 6 6 7 7 8 9 9 10 10 9 8 7 7 6 6 6 5 5 5 5 5 5 6 5 6 6 5 5 5 5 5 6 6 6 7 7 7 7 7 8 8 8 8 7 7 7 7 7 8 8 9 10 10 9 8 7 6 5 5 5 6 6 6 7 6
15 14 14 14 13 11 9 9 11 11 10 8 9 11 9 8 8 8 8 8 8 8 8 8 7 7 7 7 7 8 9 10 10 10 9 8 8 8 7 6 6 5 5 5 5 6 6 6 6 5 5 5 5 5 6 5 5 6 5 5 5 5 5 5 5 6 6 6 6 6 6 6 6 7 7 8 9 9 9 8 7 6 5 5 6 6 6 7
12 14 15 15 16 15 13 11 10 10 10 10 10 10 9 9 8 8 8 8 8 8 8 8 8 7 8 8 8 8 8 9 10 11 11 10 10 10 9 9 8 8 8 7 7 7 7 7 7 7 7 7 7 7 7 6 6 6 6 6 6 6 6 6 5 5 5 5 5 5 6 6 5 6 6 7 7 8 9 9 9 8 6 5 5 6 6 6
5 8 10 13 15 16 16 14 12 11 11 10 10 9 9 9 8 8 8 7 7 7 7 7 7 7 8 9 9 9 9 10 10 11 12 12 12 12 11 11 10 11 10 10 9 8 9 9 9 9 10 9 9 9 9 9 9 9 9 8 8 8 7 7 7 7 6 6 6 7 6 5 5 6 6 6 7 7 8 8 9 9 9 8 6 5 5 5
3 3 5 7 10 13 14 14 13 12 11 11 10 10 9 8 8 7 7 7 7 7 7 8 8 9 9 9 10 10 10 10 10 11 11 11 12 12 13 12 12 12 11 11 11 11 11 10 10 10 10 10 10 10 10 9 10 9 9 9 9 9 9 10 9 9 9 8 8 8 7 6 7 7 6 6 7 7 7 7 8 8 8 9 9 7 6 5
9 6 5 5 6 8 10 12 11 11 10 9 9 9 8 8 8 8 8 7 7 8 8 8 9 10 11 11 11 11 11 11 10 10 11 11 11 11 12 12 12 11 11 11 11 11 11 11 11 10 9 10 9 9 9 10 10 9 9 10 10 10 10 10 10 10 10 9 10 9 8 8 8 8 8 8 7 7 7 7 7 8 8 8 9 9 9 8
12 11 9 8 8 7 8 10 10 10 9 9 9 8 8 8 8 9 10 8 9 10 9 10 11 11 12 12 12 12 11 11 12 11 10 10 11 10 10 11 11 11 11 11 11 11 11 10 10 10 10 9 9 9 9 9 9 8 9 10 9 9 9 9 9 10 10 10 9 8 9 10 8 9 10 11 10 10 9 9 8 8 8 8 9 9 10 10
10 12 11 9 9 8 9 10 10 11 10 10 10 9 9 9 9 10 10 10 11 11 10 11 10 10 11 11 13 14 13 12 12 12 11 10 10 10 9 9 10 10 9 10 10 9 8 8 8 8 8 8 8 9 8 8 8 8 9 9 8 8 8 9 9 8 10 8 6 7 10 10 9 8 10 10 10 11 11 11 12 11 10 9 8 8 9 9
7 9 11 11 10 9 9 9 10 11 11 10 9 9 9 9 10 10 9 10 11 9 9 10 10 10 11 11 11 12 13 13 12 12 12 11 11 10 10 10 9 9 9 8 8 8 8 8 7 7 7 7 7 7 7 7 7 7 8 7 8 8 8 8 7 7 8 5 4 7 8 10 10 7 5 7 8 10 11 12 12 11 11 12 11 11 10 9
8 8 9 10 11 11 10 8 8 9 9 9 8 8 8 8 8 8 9 12 11 9 10 11 12 13 13 13 13 12 12 11 11 11 11 10 10 10 9 9 8 8 7 7 6 6 7 7 7 6 6 6 7 6 6 7 6 7 7 7 8 7 7 7 6 7 5 3 6 8 7 9 12 8 6 8 9 9 9 9 10 11 11 12 12 12 12 11
9 9 9 10 10 11 11 10 8 8 8 8 8 8 8 8 7 7 9 10 9 8 10 10 11 12 11 11 11 11 11 10 9 9 9 9 9 8 8 8 7 7 7 7 7 7 8 8 8 8 8 8 8 8 8 8 8 8 8 8 8 7 6 6 5 5 3 4 9 10 7 8 11 11 8 6 7 8 7 7 10 12 12 12 12 12 11 12
8 7 8 9 9 10 11 12 11 11 9 8 9 9 8 8 8 8 8 8 8 8 9 9 10 10 11 10 10 9 9 8 8 8 7 8 8 8 8 8 9 9 9 10 10 10 9 9 9 9 9 9 8 9 9 9 9 9 10 10 10 9 9 7 7 8 8 11 14 12 10 7 9 14 11 6 7 10 10 10 9 10 11 12 12 12 12 12
11 8 7 7 8 9 10 11 12 12 12 11 11 11 11 10 9 9 7 8 9 7 6 7 7 8 9 10 10 10 10 9 9 9 8 9 8 9 8 8 8 8 9 9 10 10 9 8 8 8 9 9 10 10 11 11 11 12 12 12 12 11 11 11 12 12 13 15 14 13 12 9 10 16 17 17 17 16 14 12 9 8 8 8 9 9 11 11
13 11 10 10 10 10 10 11 11 11 11 12 11 10 11 10 9 9 9 9 9 8 8 8 9 9 9 10 10 10 11 11 10 10 10 10 10 10 10 10 9 9 9 8 8 8 9 9 9 10 11 11 12 11 11 11 11 11 11 10 10 9 9 10 10 10 10 11 10 9 8 7 11 14 16 16 14 12 12 11 11 11 9 9 9 9 9 9
14 12 12 11 11 11 12 12 11 11 12 12 11 11 11 10 10 11 11 11 11 11 10 10 10 10 10 11 11 11 11 11 11 12 11 11 11 10 10 10 9 9 9 9 9 9 9 9 10 11 10 10 10 10 9 9 8 8 8 7 7 8 8 8 8 7 7 6 6 5 4 6 9 9 8 8 8 9 11 11 10 11 10 10 10 9 9 9
13 14 13 11 10 11 12 12 11 11 12 12 13 13 12 12 12 12 12 12 12 12 12 12 11 11 11 12 12 13 12 11 11 11 11 12 12 11 11 11 11 11 11 10 10 10 10 9 9 9 9 8 8 7 7 7 6 6 6 6 8 9 8 8 8 8 9 9 9 10 11 14 16 17 17 18 18 18 17 17 16 14 13 12 11 10 9 9
11 12 13 12 11 10 10 11 10 10 10 11 13 12 12 13 12 11 12 12 13 13 13 13 13 12 12 13 13 13 13 12 11 11 10 10 9 9 9 10 10 9 9 9 8 8 8 7 8 7 7 7 7 8 8 7 7 9 11 12 13 12 12 14 15 15 16 17 19 19 20 20 20 20 22 21 19 18 18 19 19 19 19 19 18 17 15 13
9 10 11 12 12 11 10 10 10 10 10 11 12 12 12 13 12 11 12 13 13 14 14 14 15 15 14 14 14 14 13 13 13 12 11 10 9 9 9 9 8 8 7 7 7 8 8 8 8 8 8 9 9 9 10 12 14 16 16 17 17 16 16 17 16 16 16 15 16 15 14 14 13 13 13 11 10 11 11 11 12 13 14 14 15 16 17 17
11 10 10 10 10 11 11 10 9 10 11 12 11 12 12 12 11 11 11 11 11 11 12 13 14 15 15 15 15 14 14 14 13 12 11 11 11 11 10 10 9 9 9 8 8 8 8 9 10 10 11 12 12 12 15 17 18 17 16 15 14 13 13 11 10 10 9 8 9 9 8 8 8 8 8 7 7 8 7 8 8 8 8 8 8 9 10 11
12 11 10 9 9 10 10 10 11 11 12 12 11 11 12 11 11 11 11 11 10 9 10 11 12 14 15 15 14 14 14 13 12 12 12 11 11 11 11 10 10 10 10 10 10 10 10 11 12 13 14 15 16 17 17 15 13 12 11 10 9 9 8 7 7 6 6 6 7 7 7 6 5 5 6 6 7 7 7 7 7 7 7 8 8 8 9 9
12 11 11 10 9 9 10 11 12 12 13 12 11 11 12 11 11 10 10 10 9 9 9 9 10 11 12 13 14 13 13 12 11 11 11 11 11 11 11 10 10 10 10 10 11 12 13 13 14 15 15 15 16 15 13 10 9 8 8 7 7 7 6 6 6 6 7 7 6 6 6 5 5 6 6 7 8 8 8 7 7 8 8 10 11 11 12 11
12 11 11 10 10 10 11 12 12 13 14 13 11 12 12 11 11 11 10 10 9 9 10 9 9 10 10 11 12 12 12 12 12 11 11 11 11 11 11 11 11 12 13 13 13 13 13 14 15 15 14 13 11 10 9 8 7 7 6 7 6 6 6 7 6 6 6 5 6 6 5 5 6 8 8 9 9 8 8 8 8 9 10 11 12 11 10 9
11 11 12 11 11 11 12 12 13 14 14 13 12 12 13 12 12 11 11 10 10 9 10 10 10 10 10 10 10 11 11 12 12 12 12 12 12 13 13 13 13 14 15 15 15 14 14 13 13 12 11 10 9 8 8 7 7 7 6 6 6 6 6 6 5 6 5 4 7 7 5 7 9 9 9 9 8 7 8 9 10 11 11 10 9 8 8 9
10 11 12 13 11 11 12 13 13 14 14 12 12 13 13 13 12 11 10 10 10 10 11 11 10 10 10 10 10 10 10 11 12 13 13 14 14 15 15 15 16 16 15 14 15 15 13 12 12 10 10 9 9 8 8 8 7 6 5 6 6 5 5 5 6 6 5 6 8 6 5 9 10 8 7 8 8 8 9 10 11 10 9 8 8 9 10 10
8 9 11 13 12 11 11 12 13 13 12 11 12 12 13 13 12 11 11 10 11 11 11 12 11 10 9 9 10 10 9 10 11 13 15 15 15 15 16 16 15 14 14 13 13 12 12 11 10 9 8 7 7 7 6 6 6 5 6 6 6 6 6 6 5 5 6 9 7 5 7 10 9 9 9 9 8 9 10 11 11 9 8 9 10 10 10 10
7 8 11 13 12 11 11 12 12 12 11 11 12 12 12 13 13 13 11 10 10 11 11 12 11 10 9 9 9 9 9 10 11 14 16 16 15 15 14 14 13 12 12 12 12 11 11 10 9 8 7 6 6 6 6 6 6 6 7 6 6 7 6 6 6 7 9 8 5 8 12 11 10 10 9 8 8 10 12 11 10 9 10 10 10 10 10 10
5 7 10 11 11 11 11 12 11 11 10 11 11 11 11 12 13 13 12 11 11 11 12 12 11 10 10 9 9 9 9 10 11 13 16 15 14 12 12 12 11 11 11 10 10 10 9 8 8 8 7 6 6 6 6 6 5 5 5 5 6 6 6 7 8 8 8 6 7 12 11 9 10 11 8 8 11 12 12 10 10 10 10 10 10 10 10 10
5 6 8 10 11 11 10 10 11 11 10 10 11 11 11 12 13 14 13 13 12 12 13 13 11 10 10 9 9 9 9 9 10 12 14 14 12 11 11 11 11 11 11 10 10 9 8 8 8 7 7 7 6 5 5 5 5 4 5 5 4 5 7 8 8 9 8 8 11 12 8 9 13 10 8 11 12 12 11 9 10 10 9 9 10 9 9 10
5 6 7 8 11 12 11 9 9 10 11 10 11 11 11 12 13 14 14 14 13 13 13 12 11 10 10 10 9 9 8 9 10 12 13 13 12 10 9 10 10 10 10 10 10 9 8 8 8 7 6 6 5 5 5 4 5 5 5 5 7 8 9 8 9 9 8 9 12 10 9 13 13 8 9 13 12 11 11 10 10 10 9 9 9 9 9 10
5 5 6 7 9 12 13 11 9 10 10 10 11 12 12 12 13 14 14 14 14 13 12 12 11 10 10 10 10 9 9 9 9 10 12 13 13 11 10 10 10 10 10 9 9 9 8 7 7 7 6 6 6 6 5 5 6 6 6 8 9 9 9 9 9 9 10 12 12 9 11 15 11 8 11 12 11 11 11 10 10 9 9 9 9 10 10 9
6 5 6 7 6 8 12 14 12 10 9 10 12 13 13 13 14 14 15 14 14 14 13 12 11 10 10 10 10 10 9 9 8 9 10 12 12 12 11 11 10 10 10 9 9 9 8 7 7 6 5 6 6 5 6 7 5 6 8 10 9 8 9 10 10 11 12 12 10 10 13 13 8 8 11 10 9 11 10 9 10 10 10 10 10 10 9 9
6 5 5 7 6 5 9 14 13 11 9 9 11 13 15 15 14 15 15 15 14 14 13 12 12 10 10 10 9 10 10 9 9 9 10 11 11 11 11 11 10 10 10 9 9 8 8 7 7 7 6 6 6 6 7 6 5 8 11 10 9 9 10 11 11 12 11 10 11 12 12 9 7 8 9 9 10 11 10 11 12 11 10 11 10 10 10 11
Height
5606 5607 5609 5610 5612 5613 5615 5617 5619 5622 5625 5628 5631 5634 5637 5640 5642 5645 5647 5650 5652 5654 5657 5660 5662 5664 5666 5668 5670 5672 5674 5676 5678 5680 5681 5683 5685 5687 5688 5689 5691 5693 5695 5696 5698 5699 5701 5702 5703 5705 5706 5707 5709 5710 5711 5713 5714 5715 5716 5718 5720 5722 5724 5725 5725 5726 5729 5731 5732 5734 5735 5737 5739 5741 5743 5745 5747 5748 5750 5752 5754 5756 5757 5759 5761 5762 5763 5764
5606 5607 5608 5609 5611 5612 5614 5615 5618 5620 5623 5626 5629 5632 5635 5638 5640 5643 5645 5647 5650 5652 5654 5657 5660 5662 5664 5666 5668 5670 5672 5674 5675 5677 5679 5681 5683 5684 5686 5687 5689 5690 5692 5694 5695 5696 5698 5699 5701 5702 5704 5705 5706 5708 5709 5710 5711 5713 5714 5716 5717 5719 5720 5721 5722 5724 5726 5727 5729 5731 5732 5734 5736 5737 5739 5741 5742 5744 5746 5748 5750 5752 5753 5755 5757 5758 5760 5760
5605 5606 5607 5609 5610 5611 5613 5614 5616 5618 5621 5624 5627 5630 5633 5635 5638 5640 5643 5645 5647 5650 5652 5655 5657 5659 5661 5663 5665 5667 5669 5671 5673 5675 5677 5678 5680 5682 5683 5685 5686 5688 5690 5691 5692 5694 5695 5697 5699 5700 5701 5703 5704 5705 5706 5708 5709 5710 5712 5713 5715 5716 5717 5718 5720 5721 5723 5724 5726 5727 5729 5730 5732 5734 5736 5737 5738 5740 5742 5744 5746 5747 5749 5751 5752 5754 5756 5757
5605 5606 5607 5608 5609 5610 5612 5613 5615 5617 5620 5623 5625 5628 5631 5633 5635 5638 5641 5643 5645 5647 5650 5652 5655 5657 5659 5661 5663 5665 5667 5669 5670 5672 5674 5676 5678 5679 5681 5682 5684 5686 5687 5689 5690 5691 5693 5694 5696 5697 5699 5700 5701 5702 5704 5705 5707 5708 5710 5711 5712 5713 5714 5716 5717 5718 5720 5721 5722 5724 5725 5727 5728 5730 5732 5733 5735 5736 5738 5740 5741 5743 5745 5747 5749 5750 5751 5753
5605 5606 5606 5607 5608 5609 5611 5612 5614 5616 5618 5621 5623 5626 5628 5630 5633 5636 5638 5641 5643 5645 5647 5650 5652 5654 5656 5658 5660 5662 5664 5666 5668 5670 5672 5674 5675 5677 5679 5680 5682 5683 5685 5686 5688 5689 5690 5692 5693 5695 5696 5697 5698 5700 5701 5703 5704 5706 5707 5708 5709 5710 5712 5713 5714 5716 5717 5718 5720 5721 5722 5723 5725 5726 5728 5730 5731 5732 5734 5736 5738 5739 5742 5743 5745 5746 5748 5749
5605 5606 5606 5607 5607 5608 5610 5611 5613 5615 5617 5619 5622 5624 5626 5628 5631 5633 5636 5638 5640 5642 5645 5647 5649 5651 5654 5656 5658 5660 5662 5664 5666 5668 5670 5672 5673 5675 5676 5678 5679 5681 5682 5684 5685 5686 5688 5689 5691 5692 5693 5695 5696 5697 5698 5700 5702 5703 5704 5705 5707 5708 5709 5710 5712 5713 5715 5716 5717 5718 5719 5721 5722 5723 5724 5726 5727 5729 5731 5732 5734 5736 5738 5740 5741 5742 5744 5745
5605 5605 5606 5607 5607 5608 5609 5610 5612 5613 5616 5618 5620 5622 5624 5626 5628 5631 5634 5636 5638 5640 5642 5644 5646 5648 5651 5653 5655 5657 5659 5661 5664 5666 5667 5669 5670 5672 5674 5675 5677 5678 5680 5681 5683 5684 5685 5686 5688 5689 5690 5692 5693 5695 5696 5697 5699 5700 5702 5702 5704 5706 5706 5708 5709 5710 5712 5713 5714 5715 5716 5718 5719 5720 5721 5722 5723 5725 5727 5728 5730 5732 5734 5736 5737 5739 5740 5741
5605 5605 5606 5606 5607 5608 5608 5609 5610 5612 5614 5617 5619 5620 5622 5624 5626 5629 5631 5634 5636 5638 5640 5642 5644 5646 5648 5650 5652 5654 5656 5658 5661 5663 5665 5666 5668 5669 5671 5672 5674 5676 5677 5678 5680 5681 5682 5684 5685 5686 5687 5689 5690 5692 5693 5695 5696 5697 5698 5700 5701 5703 5703 5705 5706 5707 5709 5710 5711 5712 5713 5714 5715 5717 5718 5719 5720 5721 5723 5724 5726 5728 5730 5731 5733 5735 5736 5736
5605 5605 5606 5606 5607 5608 5608 5609 5610 5611 5613 5615 5617 5619 5621 5622 5624 5626 5629 5631 5633 5635 5637 5639 5641 5643 5645 5647 5649 5651 5653 5655 5657 5659 5661 5663 5665 5666 5668 5669 5671 5672 5674 5675 5677 5678 5680 5681 5682 5683 5684 5686 5687 5689 5690 5692 5693 5694 5695 5697 5698 5700 5701 5702 5703 5704 5705 5706 5708 5709 5710 5711 5712 5713 5714 5715 5716 5717 5719 5720 5722 5723 5725 5727 5729 5730 5731 5732
5605 5605 5605 5606 5607 5607 5608 5608 5609 5610 5612 5613 5615 5617 5619 5621 5622 5625 5627 5629 5631 5633 5634 5636 5638 5640 5642 5644 5646 5648 5650 5652 5654 5656 5658 5660 5661 5663 5664 5666 5668 5669 5671 5672 5674 5675 5677 5678 5679 5680 5681 5683 5684 5686 5687 5688 5690 5691 5692 5694 5695 5696 5698 5699 5700 5701 5702 5703 5704 5705 5706 5707 5709 5710 5711 5712 5713 5714 5715 5716 5718 5719 5721 5722 5724 5725 5727 5727
5605 5605 5605 5606 5606 5607 5608 5608 5609 5609 5611 5612 5614 5615 5617 5619 5621 5623 5624 5626 5628 5630 5632 5633 5635 5637 5639 5641 5643 5644 5646 5649 5651 5653 5654 5656 5658 5660 5662 5663 5665 5666 5667 5669 5671 5672 5673 5674 5676 5677 5678 5680 5681 5682 5684 5685 5686 5687 5689 5690 5691 5693 5694 5695 5696 5697 5698 5699 5700 5701 5702 5703 5705 5706 5707 5709 5710 5711 5712 5713 5714 5715 5716 5718 5719 5720 5722 5723
5605 5605 5605 5606 5606 5607 5607 5608 5608 5609 5610 5611 5612 5614 5616 5617 5619 5621 5622 5624 5625 5627 5629 5630 5632 5634 5636 5638 5639 5641 5643 5645 5647 5649 5651 5653 5655 5657 5658 5660 5661 5663 5664 5666 5667 5668 5670 5671 5672 5673 5675 5676 5678 5679 5680 5682 5683 5684 5685 5686 5688 5689 5691 5692 5693 5694 5695 5695 5696 5697 5698 5700 5702 5703 5704 5705 5707 5708 5708 5709 5710 5711 5712 5714 5715 5716 5717 5718
5606 5606 5606 5606 5606 5607 5607 5607 5608 5608 5609 5610 5611 5613 5614 5616 5617 5619 5620 5622 5623 5625 5626 5628 5629 5631 5633 5635 5637 5638 5640 5642 5644 5646 5648 5650 5651 5653 5655 5656 5658 5659 5661 5662 5663 5665 5666 5668 5669 5670 5671 5673 5674 5675 5677 5678 5679 5680 5682 5683 5684 5686 5687 5688 5689 5690 5691 5691 5693 5694 5694 5697 5699 5699 5701 5702 5704 5705 5705 5706 5707 5708 5709 5710 5711 5712 5713 5714
5606 5606 5606 5606 5606 5606 5607 5607 5607 5608 5609 5610 5611 5612 5613 5615 5616 5617 5619 5620 5621 5623 5624 5625 5627 5629 5630 5632 5634 5636 5637 5639 5641 5643 5644 5646 5648 5649 5651 5653 5654 5656 5657 5659 5660 5662 5663 5664 5666 5667 5668 5669 5671 5672 5673 5674 5676 5677 5678 5679 5681 5682 5683 5685 5685 5687 5687 5687 5689 5689 5690 5693 5695 5696 5698 5698 5699 5700 5701 5702 5703 5704 5705 5706 5707 5708 5708 5709
5607 5606 5606 5606 5606 5606 5607 5607 5607 5608 5608 5609 5610 5611 5613 5614 5615 5616 5617 5619 5620 5621 5622 5624 5625 5626 5628 5630 5632 5633 5635 5636 5638 5640 5641 5643 5645 5646 5648 5650 5651 5652 5654 5655 5657 5658 5660 5661 5662 5663 5665 5666 5667 5669 5670 5671 5672 5674 5675 5676 5677 5678 5679 5680 5681 5682 5683 5683 5685 5685 5686 5689 5691 5693 5694 5695 5695 5696 5697 5699 5699 5700 5701 5702 5703 5703 5704 5705
5608 5607 5606 5606 5606 5606 5607 5607 5607 5608 5608 5609 5610 5611 5612 5613 5614 5615 5616 5617 5619 5620 5621 5622 5624 5625 5626 5628 5629 5631 5632 5634 5635 5637 5639 5640 5641 5643 5644 5646 5648 5649 5651 5652 5653 5655 5656 5658 5659 5660 5662 5663 5664 5665 5666 5667 5669 5670 5671 5673 5674 5675 5675 5676 5677 5677 5678 5679 5680 5681 5682 5684 5687 5689 5690 5691 5692 5693 5694 5695 5696 5696 5697 5698 5698 5699 5700 5700
5608 5607 5607 5606 5606 5606 5607 5607 5607 5608 5609 5609 5610 5610 5611 5612 5613 5614 5615 5616 5617 5618 5620 5621 5622 5623 5625 5626 5628 5629 5630 5632 5633 5634 5636 5637 5639 5640 5641 5643 5644 5646 5647 5649 5650 5652 5653 5655 5656 5657 5658 5659 5660 5661 5663 5664 5666 5667 5668 5669 5670 5671 5671 5671 5672 5672 5673 5674 5676 5677 5679 5681 5682 5684 5686 5687 5688 5689 5689 5690 5691 5692 5693 5693 5694 5695 5695 5695
5608 5607 5607 5606 5606 5606 5606 5607 5607 5608 5609 5609 5610 5610 5611 5611 5612 5613 5614 5615 5616 5617 5618 5619 5620 5622 5623 5624 5625 5627 5628 5630 5631 5632 5633 5635 5636 5637 5638 5640 5641 5643 5644 5646 5647 5648 5650 5651 5652 5654 5655 5656 5657 5659 5660 5661 5663 5663 5664 5664 5664 5665 5666 5666 5667 5668 5669 5670 5672 5674 5675 5677 5679 5680 5681 5682 5684 5685 5685 5686 5687 5688 5689 5689 5690 5690 5690 5691
5608 5607 5607 5606 5606 5606 5606 5606 5607 5608 5608 5609 5609 5610 5610 5611 5611 5612 5612 5613 5614 5615 5616 5617 5619 5620 5621 5622 5623 5624 5626 5627 5628 5630 5631 5632 5633 5634 5636 5637 5638 5639 5641 5642 5643 5645 5646 5647 5649 5650 5652 5653 5654 5655 5656 5656 5657 5657 5658 5659 5660 5661 5663 5663 5664 5665 5666 5667 5668 5670 5671 5673 5674 5675 5677 5678 5679 5680 5681 5682 5682 5683 5684 5685 5685 5685 5686 5686
5607 5607 5606 5606 5606 5606 5606 5606 5606 5607 5607 5608 5609 5609 5609 5610 5610 5611 5612 5612 5613 5614 5615 5616 5617 5618 5619 5620 5621 5622 5623 5624 5625 5627 5628 5629 5630 5631 5632 5634 5635 5636 5637 5639 5640 5641 5642 5644 5646 5647 5648 5649 5649 5650 5651 5652 5653 5655 5656 5657 5658 5659 5659 5660 5660 5661 5662 5663 5664 5666 5666 5668 5669 5670 5672 5673 5674 5675 5676 5677 5678 5678 5679 5680 5680 5681 5681 5681
5607 5606 5606 5605 5605 5605 5605 5605 5606 5606 5606 5607 5607 5608 5608 5609 5609 5610 5610 5611 5612 5613 5613 5614 5615 5616 5616 5617 5618 5619 5620 5621 5622 5623 5624 5626 5627 5628 5629 5630 5632 5633 5634 5635 5636 5638 5639 5640 5642 5643 5644 5644 5645 5646 5648 5649 5651 5652 5653 5653 5654 5655 5655 5656 5657 5657 5658 5658 5660 5661 5662 5663 5664 5666 5667 5668 5669 5670 5671 5672 5673 5673 5674 5675 5675 5676 5676 5676
5607 5606 5606 5605 5605 5604 5604 5604 5605 5605 5605 5606 5606 5606 5607 5607 5608 5608 5609 5609 5610 5611 5611 5612 5613 5613 5614 5615 5615 5616 5617 5618 5619 5620 5621 5622 5623 5624 5625 5627 5628 5629 5630 5631 5633 5634 5635 5636 5637 5639 5640 5640 5641 5643 5644 5645 5646 5647 5648 5649 5650 5651 5651 5651 5652 5653 5653 5654 5655 5656 5657 5658 5660 5661 5662 5663 5664 5665 5666 5667 5667 5668 5669 5669 5670 5670 5671 5672
5606 5606 5605 5605 5604 5604 5604 5603 5603 5604 5604 5604 5604 5605 5605 5605 5606 5606 5607 5607 5608 5608 5609 5609 5610 5610 5611 5611 5612 5613 5614 5615 5615 5616 5618 5619 5620 5621 5622 5623 5624 5625 5626 5628 5629 5630 5631 5632 5633 5634 5635 5637 5638 5639 5640 5641 5642 5643 5644 5645 5645 5646 5646 5646 5647 5648 5648 5649 5650 5651 5651 5653 5655 5656 5658 5659 5659 5660 5661 5662 5662 5663 5663 5664 5664 5665 5666 5666
5606 5605 5605 5604 5604 5603 5603 5603 5602 5602 5602 5602 5602 5603 5603 5603 5604 5604 5604 5605 5605 5606 5606 5606 5607 5607 5608 5608 5609 5610 5610 5611 5612 5613 5614 5615 5616 5617 5618 5619 5620 5621 5622 5623 5625 5626 5627 5628 5629 5631 5632 5633 5634 5635 5636 5637 5638 5639 5640 5640 5641 5641 5641 5641 5642 5643 5644 5644 5646 5646 5646 5648 5651 5652 5653 5654 5655 5656 5657 5657 5657 5657 5658 5658 5659 5659 5660 5660
5605 5605 5604 5604 5603 5603 5602 5602 5601 5601 5601 5601 5601 5601 5601 5601 5601 5602 5602 5602 5603 5603 5603 5604 5604 5604 5605 5605 5606 5606 5607 5608 5609 5609 5610 5611 5612 5613 5614 5615 5616 5617 5618 5620 5620 5622 5623 5624 5626 5627 5627 5629 5629 5630 5631 5632 5633 5634 5635 5636 5636 5636 5636 5637 5637 5638 5639 5640 5641 5641 5640 5643 5646 5646 5648 5649 5650 5651 5651 5651 5652 5652 5652 5652 5652 5653 5653 5654
5604 5603 5603 5603 5602 5602 5601 5601 5600 5600 5599 5599 5599 5599 5599 5599 5599 5599 5600 5600 5600 5600 5601 5601 5601 5601 5602 5602 5603 5603 5604 5604 5605 5606 5607 5608 5609 5610 5611 5612 5613 5614 5615 5616 5617 5618 5619 5621 5622 5622 5623 5624 5625 5626 5627 5628 5629 5629 5630 5631 5631 5632 5632 5632 5632 5633 5633 5634 5636 5636 5635 5638 5640 5641 5642 5644 5644 5645 5646 5646 5646 5646 5646 5646 5646 5647 5647 5648
5603 5602 5602 5601 5601 5601 5600 5599 5599 5598 5597 5597 5597 5596 5596 5596 5596 5597 5597 5597 5597 5598 5598 5598 5598 5599 5599 5599 5599 5600 5600 5601 5602 5602 5603 5604 5605 5606 5607 5608 5609 5610 5611 5612 5613 5615 5616 5617 5617 5618 5619 5620 5621 5622 5623 5624 5624 5625 5626 5627 5627 5627 5627 5627 5627 5627 5628 5629 5630 5631 5630 5631 5634 5637 5638 5638 5639 5640 5641 5641 5640 5640 5640 5640 5640 5641 5641 5641
5602 5601 5600 5600 5599 5599 5598 5598 5597 5597 5596 5595 5595 5594 5594 5594 5594 5594 5594 5594 5594 5595 5595 5595 5596 5596 5596 5596 5596 5597 5597 5598 5598 5599 5600 5601 5602 5603 5603 5605 5606 5607 5608 5609 5609 5611 5612 5613 5613 5614 5615 5616 5617 5618 5619 5620 5620 5621 5622 5622 5622 5622 5622 5623 5622 5623 5623 5623 5626 5627 5625 5623 5628 5633 5633 5633 5634 5634 5635 5635 5634 5634 5634 5634 5634 5635 5635 5635
5601 5600 5599 5598 5597 5597 5596 5596 5595 5595 5594 5593 5593 5592 5592 5591 5591 5591 5591 5591 5591 5592 5592 5592 5593 5593 5593 5593 5593 5593 5594 5594 5595 5596 5597 5597 5598 5599 5600 5601 5602 5603 5604 5605 5606 5607 5608 5609 5609 5610 5611 5612 5613 5614 5614 5615 5616 5617 5617 5617 5618 5618 5618 5618 5617 5618 5617 5618 5622 5623 5619 5617 5621 5627 5628 5628 5629 5630 5630 5628 5627 5628 5628 5628 5628 5628 5628 5628
5600 5598 5597 5596 5596 5595 5594 5594 5593 5593 5592 5591 5591 5590 5589 5589 5589 5589 5589 5589 5589 5589 5589 5589 5590 5590 5590 5590 5590 5590 5591 5591 5592 5593 5593 5594 5595 5596 5597 5598 5599 5599 5600 5601 5602 5603 5604 5605 5605 5606 5607 5608 5609 5609 5610 5611 5611 5612 5612 5613 5613 5613 5613 5613 5613 5613 5611 5613 5618 5617 5614 5611 5613 5622 5626 5623 5624 5625 5623 5622 5621 5622 5622 5621 5621 5621 5621 5621
5598 5597 5596 5595 5594 5593 5592 5592 5591 5591 5590 5589 5589 5588 5587 5587 5587 5586 5586 5586 5586 5586 5586 5586 5586 5587 5587 5587 5587 5587 5588 5588 5589 5590 5590 5591 5592 5593 5593 5594 5595 5596 5596 5597 5598 5599 5600 5601 5601 5602 5603 5604 5605 5605 5606 5606 5607 5608 5608 5608 5608 5608 5608 5608 5608 5608 5606 5609 5613 5611 5609 5607 5607 5617 5622 5618 5617 5618 5617 5616 5616 5615 5615 5615 5614 5614 5614 5614
5597 5596 5595 5593 5592 5591 5590 5590 5589 5588 5588 5587 5587 5586 5585 5585 5585 5584 5584 5583 5583 5583 5583 5583 5583 5584 5584 5584 5584 5584 5585 5585 5586 5586 5587 5588 5588 5589 5590 5590 5591 5592 5593 5594 5595 5595 5596 5597 5597 5598 5599 5600 5600 5601 5601 5602 5603 5603 5603 5604 5603 5603 5602 5603 5603 5602 5602 5605 5607 5605 5604 5601 5604 5612 5614 5611 5610 5611 5611 5610 5609 5609 5609 5608 5608 5608 5608 5608
5595 5594 5593 5592 5590 5589 5588 5587 5587 5586 5585 5585 5584 5584 5583 5583 5582 5582 5581 5581 5580 5580 5580 5580 5580 5580 5580 5581 5581 5581 5581 5582 5582 5583 5583 5584 5584 5585 5586 5586 5587 5588 5589 5590 5591 5591 5592 5593 5593 5594 5595 5596 5596 5596 5597 5597 5598 5598 5599 5599 5599 5598 5597 5598 5598 5598 5599 5601 5601 5600 5598 5597 5601 5606 5606 5605 5605 5605 5605 5604 5603 5603 5602 5602 5602 5602 5601 5601
5594 5592 5591 5590 5589 5587 5586 5585 5584 5584 5583 5582 5582 5581 5581 5580 5580 5579 5578 5578 5578 5577 5577 5577 5577 5577 5577 5577 5577 5577 5578 5578 5578 5579 5579 5580 5581 5581 5582 5583 5584 5584 5585 5586 5586 5587 5588 5589 5590 5590 5591 5592 5592 5592 5593 5593 5593 5593 5594 5594 5594 5594 5592 5593 5594 5593 5595 5595 5595 5595 5593 5593 5598 5600 5600 5600 5598 5598 5598 5597 5597 5597 5596 5596 5596 5595 5595 5595
5592 5590 5589 5588 5587 5586 5584 5583 5582 5581 5581 5580 5579 5578 5578 5577 5576 5576 5575 5575 5575 5574 5574 5573 5573 5573 5573 5573 5573 5574 5574 5574 5575 5575 5576 5576 5577 5578 5578 5579 5580 5581 5581 5582 5582 5584 5584 5585 5586 5586 5587 5587 5588 5588 5588 5589 5588 5589 5589 5589 5589 5589 5588 5589 5589 5589 5590 5589 5589 5590 5589 5590 5593 5594 5595 5594 5592 5592 5592 5592 5591 5590 5590 5590 5589 5589 5589 5589
5590 5589 5588 5586 5585 5584 5583 5581 5580 5579 5578 5577 5577 5576 5575 5574 5573 5573 5572 5572 5571 5571 5570 5570 5569 5569 5569 5569 5570 5570 5570 5570 5571 5571 5572 5573 5573 5574 5575 5575 5576 5577 5577 5578 5579 5580 5580 5581 5582 5582 5582 5583 5583 5584 5584 5584 5584 5584 5585 5585 5585 5585 5584 5584 5583 5584 5584 5583 5584 5585 5585 5587 5588 5587 5589 5588 5586 5586 5586 5586 5585 5584 5584 5584 5583 5583 5583 5583
5589 5587 5586 5584 5583 5582 5580 5579 5578 5577 5576 5575 5574 5573 5572 5571 5570 5569 5569 5568 5568 5567 5567 5566 5566 5566 5566 5566 5566 5566 5566 5567 5567 5568 5568 5569 5569 5570 5571 5572 5572 5573 5573 5574 5575 5575 5576 5577 5577 5578 5578 5578 5578 5579 5579 5579 5579 5579 5580 5580 5580 5580 5580 5579 5578 5579 5579 5578 5580 5581 5581 5582 5582 5582 5584 5582 5580 5580 5579 5579 5579 5579 5579 5578 5578 5577 5577 5577
5587 5585 5584 5582 5581 5580 5578 5577 5576 5575 5574 5573 5571 5570 5570 5569 5567 5566 5566 5565 5564 5564 5563 5563 5562 5562 5562 5562 5562 5563 5563 5563 5564 5564 5564 5565 5565 5566 5567 5568 5568 5569 5569 5570 5570 5571 5571 5572 5572 5573 5573 5573 5574 5574 5574 5574 5574 5575 5575 5575 5575 5575 5575 5575 5574 5575 5575 5574 5575 5576 5577 5578 5578 5578 5578 5577 5576 5575 5574 5574 5574 5574 5573 5573 5572 5572 5571 5571
5586 5584 5582 5580 5579 5577 5576 5575 5573 5572 5571 5570 5569 5568 5567 5566 5565 5564 5563 5562 5561 5561 5560 5560 5559 5559 5559 5559 5559 5559 5559 5560 5560 5560 5560 5561 5562 5563 5563 5564 5564 5564 5565 5565 5566 5566 5567 5567 5567 5568 5568 5568 5569 5569 5569 5570 5570 5571 5571 5571 5571 5571 5571 5571 5571 5571 5571 5570 5571 5571 5573 5574 5574 5574 5573 5572 5571 5570 5569 5569 5569 5569 5568 5568 5567 5566 5566 5566
5584 5582 5580 5578 5577 5575 5574 5572 5571 5569 5568 5567 5566 5565 5564 5563 5562 5561 5560 5559 5558 5558 5557 5557 5556 5556 5556 5556 5556 5556 5556 5556 5556 5556 5557 5557 5558 5559 5559 5559 5560 5560 5560 5561 5561 5562 5562 5562 5563 5563 5563 5563 5564 5565 5566 5566 5566 5567 5567 5568 5568 5568 5568 5568 5568 5568 5567 5567 5567 5567 5568 5570 5570 5569 5568 5567 5567 5566 5565 5564 5564 5564 5563 5562 5562 5561 5561 5560
5582 5580 5578 5576 5574 5573 5571 5570 5568 5567 5566 5564 5563 5562 5561 5560 5559 5558 5557 5557 5556 5555 5555 5554 5553 5553 5553 5553 5553 5553 5553 5553 5553 5553 5553 5554 5554 5554 5555 5555 5556 5556 5556 5556 5557 5557 5557 5558 5558 5559 5559 5560 5561 5562 5562 5562 5563 5563 5564 5564 5565 5564 5564 5564 5564 5564 5564 5563 5563 5562 5563 5565 5565 5564 5564 5563 5562 5561 5560 5559 5559 5558 5558 5557 5557 5556 5555 5555
5580 5578 5576 5574 5572 5570 5569 5567 5565 5564 5563 5561 5560 5559 5558 5557 5557 5556 5555 5554 5553 5552 5552 5551 5551 5550 5550 5550 5550 5550 5549 5549 5550 5550 5550 5550 5550 5550 5551 5551 5551 5552 5552 5552 5553 5553 5553 5554 5555 5555 5556 5557 5557 5558 5559 5559 5560 5560 5561 5561 5561 5561 5561 5560 5560 5561 5560 5559 5559 5557 5558 5561 5561 5559 5558 5557 5556 5556 5555 5554 5554 5553 5553 5552 5551 5551 5550 5549
5578 5575 5573 5571 5569 5568 5566 5564 5562 5561 5560 5558 5557 5556 5555 5554 5554 5553 5552 5551 5550 5550 5549 5548 5548 5547 5547 5547 5547 5547 5546 5546 5546 5546 5546 5546 5547 5547 5547 5547 5547 5548 5548 5548 5549 5550 5550 5551 5551 5552 5553 5554 5554 5555 5556 5556 5557 5557 5557 5558 5557 5557 5557 5556 5556 5556 5555 5555 5555 5552 5553 5556 5556 5553 5553 5552 5551 5550 5550 5549 5548 5548 5547 5546 5546 5545 5544 5543
5575 5573 5571 5569 5567 5565 5563 5561 5560 5558 5557 5556 5554 5553 5552 5551 5551 5550 5549 5548 5547 5547 5546 5545 5545 5545 5544 5544 5543 5543 5543 5543 5543 5543 5543 5543 5543 5543 5543 5544 5544 5544 5544 5545 5546 5546 5547 5548 5548 5549 5550 5551 5551 5552 5553 5553 5553 5553 5554 5554 5553 5553 5553 5552 5552 5551 5550 5551 5550 5548 5548 5551 5550 5548 5547 5546 5545 5545 5545 5544 5543 5542 5541 5540 5540 5539 5539 5538
5573 5571 5569 5566 5564 5562 5560 5559 5557 5555 5554 5553 5552 5550 5549 5548 5548 5547 5546 5545 5544 5543 5543 5542 5542 5541 5541 5541 5540 5540 5540 5540 5540 5540 5540 5539 5539 5539 5540 5540 5540 5541 5541 5542 5543 5543 5544 5545 5545 5546 5547 5547 5548 5549 5549 5549 5549 5550 5550 5549 5549 5549 5548 5548 5547 5546 5546 5546 5545 5544 5544 5545 5544 5542 5541 5540 5540 5540 5539 5539 5538 5536 5535 5535 5534 5534 5533 5532
5570 5568 5566 5564 5562 5560 5558 5556 5554 5553 5551 5550 5549 5547 5546 5545 5544 5543 5542 5542 5541 5540 5540 5539 5539 5538 5538 5538 5537 5537 5537 5537 5536 5536 5536 5536 5536 5536 5537 5537 5537 5538 5538 5539 5539 5540 5541 5541 5542 5543 5543 5544 5544 5545 5545 5545 5545 5546 5546 5545 5545 5545 5544 5543 5542 5542 5542 5541 5540 5540 5539 5539 5538 5537 5535 5535 5534 5534 5534 5533 5532 5530 5530 5529 5528 5528 5527 5526
5567 5566 5563 5561 5559 5557 5555 5554 5552 5550 5549 5547 5546 5545 5543 5542 5541 5540 5539 5538 5538 5537 5536 5536 5536 5535 5535 5535 5534 5534 5534 5534 5533 5533 5533 5533 5533 5533 5534 5534 5534 5535 5535 5536 5536 5537 5537 5538 5538 5539 5540 5540 5541 5541 5541 5541 5541 5542 5541 5541 5541 5540 5539 5539 5537 5537 5537 5535 5535 5536 5534 5533 5533 5531 5530 5529 5529 5529 5528 5527 5526 5525 5524 5523 5523 5522 5521 5520
5565 5563 5561 5559 5556 5554 5553 5551 5549 5548 5546 5544 5543 5542 5540 5539 5538 5537 5536 5535 5534 5533 5533 5533 5532 5532 5532 5532 5531 5531 5531 5531 5530 5530 5530 5530 5530 5530 5531 5531 5531 5532 5532 5532 5533 5533 5534 5535 5535 5535 5536 5536 5537 5537 5537 5537 5537 5537 5537 5537 5536 5535 5535 5534 5533 5532 5531 5530 5530 5531 5529 5528 5527 5525 5524 5525 5524 5524 5522 5521 5520 5519 5518 5518 5517 5516 5514 5513
5562 5560 5558 5556 5554 5552 5550 5548 5547 5545 5543 5542 5540 5538 5537 5536 5534 5533 5532 5531 5531 5530 5530 5529 5529 5529 5529 5528 5528 5528 5528 5527 5527 5527 5527 5527 5527 5527 5527 5528 5528 5529 5529 5529 5529 5530 5531 5531 5531 5532 5532 5533 5533 5533 5533 5533 5533 5533 5533 5532 5532 5531 5530 5529 5528 5527 5526 5526 5525 5524 5524 5524 5521 5519 5519 5520 5519 5518 5517 5515 5515 5514 5513 5512 5511 5510 5508 5507
5559 5558 5556 5554 5552 5549 5547 5546 5544 5542 5540 5539 5537 5535 5534 5532 5531 5530 5529 5528 5527 5526 5526 5526 5525 5525 5525 5525 5525 5524 5524 5524 5524 5524 5524 5524 5524 5524 5524 5524 5525 5525 5525 5526 5526 5527 5527 5528 5528 5528 5529 5529 5529 5529 5529 5529 5529 5529 5528 5528 5527 5526 5525 5525 5523 5522 5521 5521 5520 5518 5519 5519 5515 5513 5515 5514 5513 5512 5511 5510 5509 5508 5507 5506 5505 5504 5502 5501
5556 5555 5553 5551 5549 5547 5545 5543 5541 5539 5537 5535 5534 5532 5530 5529 5527 5526 5525 5524 5524 5523 5522 5522 5522 5522 5521 5521 5521 5521 5521 5521 5521 5520 5520 5520 5520 5520 5521 5521 5521 5522 5522 5522 5523 5523 5524 5524 5524 5525 5525 5525 5525 5525 5525 5525 5524 5525 5524 5523 5522 5521 5521 5519 5518 5518 5516 5516 5515 5514 5514 5513 5510 5509 5509 5509 5507 5507 5505 5504 5504 5503 5502 5501 5499 5498 5496 5495
5553 5552 5550 5548 5546 5544 5542 5540 5538 5536 5534 5532 5530 5528 5527 5525 5524 5522 5522 5521 5520 5519 5519 5518 5518 5518 5518 5518 5517 5517 5517 5517 5517 5517 5517 5517 5517 5517 5517 5518 5518 5518 5518 5519 5519 5520 5520 5520 5521 5521 5521 5521 5521 5521 5521 5520 5520 5521 5520 5518 5517 5517 5516 5514 5514 5513 5511 5510 5510 5509 5508 5507 5505 5505 5504 5503 5502 5501 5499 5499 5498 5497 5496 5495 5493 5491 5490 5489